[[{"header":{"parameterUnit":"m.s-1","parameterCategory":1,"la1":30.2991,"la2":30.254,"lo1":-89.0895,"lo2":-89.0444,"dy":0.0017,"dx":0.0017,"nx":28,"ny":28,"refTime":"2024-07-18T21:00:00:Z","depth":0,"parameterNumber":2,"parameterNumberName":"U-component_of_WINDS"},"data":[0,0,0,0,0,0,0,0,0,0,0,0,0,0,0,0,0,0,0,0,0,0,0,0,0,0,0,0,0,0,0,0,0,0,0,0,0,0,0,0,0,0,0,0,0,0,0,0,0,0,0,0,0,0,0,0,0,0,-0.3726,-0.3725,0,-0.3674,-0.3674,-0.3673,-0.3647,-0.3647,-0.3647,-0.3647,-0.3593,-0.3592,-0.359,0,0,0,0,0,0,0,0,0,0,0,0,0,-0.3801,-0.3799,-0.3726,-0.3725,-0.3725,-0.3675,-0.3674,-0.3673,-0.3647,-0.3647,-0.3647,-0.3647,-0.3594,-0.3592,-0.359,0,0,0,0,0,0,0,0,0,0,0,0,0,-0.3761,-0.3799,-0.3726,-0.3705,-0.3703,-0.3675,-0.3674,-0.3673,-0.3647,-0.3647,-0.3647,-0.3647,-0.3594,-0.3592,-0.359,-0.3578,0,0,-0.3584,-0.3583,0,0,0,0,0,0,0,0,-0.3763,-0.3758,-0.3709,-0.3707,-0.3704,-0.3667,-0.3681,-0.3641,-0.3647,-0.3668,-0.3647,-0.3647,-0.3618,-0.3614,-0.3604,-0.3575,-0.3573,-0.3583,-0.3582,-0.3581,-0.3581,0,0,0,0,0,0,0,-0.3766,-0.376,-0.3705,-0.3708,-0.3705,-0.3699,-0.3693,-0.3673,-0.3644,-0.3666,-0.3664,-0.3659,-0.3616,-0.3606,-0.3603,-0.3572,-0.3583,-0.3582,-0.358,-0.3579,-0.3531,-0.3531,0,0,0,0,0,0,-0.3772,-0.3762,-0.3707,-0.3704,-0.3734,-0.3697,-0.3691,-0.3679,-0.3644,-0.3639,-0.3659,-0.3658,-0.361,-0.3605,-0.3601,-0.3584,-0.3581,-0.3579,-0.3578,-0.3531,-0.3531,-0.3531,0,0,0,0,0,0,-0.3774,-0.3767,-0.3709,-0.3733,-0.3725,-0.3696,-0.3683,-0.3678,-0.3668,-0.3638,-0.3633,-0.3654,-0.361,-0.3604,-0.3584,-0.3582,-0.3578,-0.3576,-0.3531,-0.3531,-0.3531,-0.3551,0,0,0,0,0,0,-0.3776,-0.3768,-0.3763,-0.3733,-0.3724,-0.3693,-0.3683,-0.3677,-0.3664,-0.3662,-0.3632,-0.3627,-0.3609,-0.3587,-0.3582,-0.3579,-0.3575,-0.3531,-0.3531,-0.3531,-0.3551,-0.3552,-0.3553,0,0,0,0,0,-0.3779,-0.3771,-0.3763,-0.3757,-0.3717,-0.3693,-0.3688,-0.3668,-0.3664,-0.3659,-0.364,-0.3628,-0.3583,-0.3585,-0.3579,-0.3576,-0.3531,-0.3531,-0.3531,-0.355,-0.3552,-0.3553,0,0,0,0,0,0,-0.3801,-0.3766,-0.3757,-0.3739,-0.372,-0.3689,-0.3682,-0.367,-0.3651,-0.365,-0.3625,-0.3619,-0.3601,-0.3586,-0.3589,-0.3562,-0.3556,-0.3555,-0.3572,-0.3574,-0.3575,-0.3579,-0.3573,0,0,0,0,0,-0.3804,-0.3788,-0.3758,-0.3745,-0.3736,-0.3711,-0.37,-0.3686,-0.3664,-0.3656,-0.3635,-0.3615,-0.3596,-0.3584,-0.3565,-0.3548,-0.3541,-0.3543,-0.3544,-0.3545,-0.3544,-0.3535,-0.3535,-0.3531,-0.3531,-0.3531,0,0,-0.381,-0.3789,-0.378,-0.3749,-0.3732,-0.3716,-0.3704,-0.3687,-0.3675,-0.3653,-0.3633,-0.3618,-0.3593,-0.3575,-0.3566,-0.3562,-0.3544,-0.3545,-0.3546,-0.3545,-0.3535,-0.3535,-0.3536,-0.3531,-0.3531,-0.3531,0,0,-0.3812,-0.3794,-0.3781,-0.3765,-0.374,-0.3723,-0.372,-0.3692,-0.3681,-0.366,-0.3644,-0.3629,-0.3597,-0.358,-0.3568,-0.3564,-0.3552,-0.3559,-0.3565,-0.3556,-0.3556,-0.3556,-0.3555,-0.3555,-0.3558,-0.3558,-0.3558,0,-0.3822,-0.3797,-0.3776,-0.3761,-0.3748,-0.3728,-0.3715,-0.37,-0.367,-0.3661,-0.3657,-0.3617,-0.3599,-0.3577,-0.3576,-0.3567,-0.3562,-0.3562,-0.3558,-0.3558,-0.3558,-0.3556,-0.3556,-0.3559,-0.3559,-0.3559,-0.3559,0,-0.3811,-0.3794,-0.3787,-0.3759,-0.3745,-0.3731,-0.3708,-0.3696,-0.3684,-0.3668,-0.3648,-0.3626,-0.3602,-0.3596,-0.3583,-0.3572,-0.357,-0.3563,-0.3556,-0.3559,-0.3558,-0.3557,-0.356,-0.356,-0.356,-0.3559,0,0,-0.3825,-0.3786,-0.3784,-0.3771,-0.3742,-0.3729,-0.3714,-0.3691,-0.3682,-0.3662,-0.3649,-0.3623,-0.3615,-0.3601,-0.3587,-0.3579,-0.3578,-0.3572,-0.3571,-0.3574,-0.3564,-0.357,-0.357,-0.357,-0.357,-0.3569,-0.3566,0,-0.3823,-0.3796,-0.3777,-0.3757,-0.3741,-0.3722,-0.3709,-0.369,-0.3675,-0.3659,-0.3642,-0.3624,-0.3616,-0.3607,-0.3598,-0.358,-0.3575,-0.358,-0.3557,-0.3557,-0.3564,-0.3569,-0.3575,-0.3573,-0.3565,-0.3565,-0.3565,0,-0.3817,-0.3798,-0.3777,-0.375,-0.3743,-0.3731,-0.3709,-0.3695,-0.3673,-0.3662,-0.3647,-0.3632,-0.3615,-0.361,-0.3587,-0.359,-0.358,-0.357,-0.3569,-0.3566,-0.3561,-0.3566,-0.3572,-0.3572,-0.3564,-0.3564,-0.3564,0,-0.383,-0.3799,-0.3782,-0.3772,-0.374,-0.3733,-0.3719,-0.3697,-0.3685,-0.3666,-0.3658,-0.3637,-0.3625,-0.3609,-0.3589,-0.3587,-0.3568,-0.3561,-0.3559,-0.3559,-0.3555,-0.3556,-0.356,-0.3549,-0.3549,-0.3549,-0.3549,0,-0.383,-0.3817,-0.3788,-0.3777,-0.3763,-0.3742,-0.3728,-0.3713,-0.3693,-0.368,-0.3662,-0.365,-0.3624,-0.3609,-0.3593,-0.3576,-0.3571,-0.3562,-0.3558,-0.3563,-0.3565,-0.3556,-0.3556,-0.3549,-0.3549,-0.3549,-0.3549,0,-0.3841,-0.3821,-0.3802,-0.3774,-0.3766,-0.3757,-0.3733,-0.3722,-0.3706,-0.3689,-0.3684,-0.3659,-0.3639,-0.3618,-0.3591,-0.3581,-0.3565,-0.3559,-0.3573,-0.3571,-0.3569,-0.357,-0.3568,-0.3567,-0.3557,-0.3557,-0.3557,0,-0.3842,-0.3833,-0.3804,-0.3794,-0.3781,-0.3764,-0.3752,-0.3731,-0.3719,-0.3693,-0.3685,-0.3665,-0.3648,-0.3618,-0.3597,-0.3577,-0.357,-0.3571,-0.3567,-0.3573,-0.357,-0.3571,-0.357,-0.3572,-0.3572,-0.3573,-0.3573,0,-0.3847,-0.3837,-0.382,-0.38,-0.3786,-0.3769,-0.3751,-0.3744,-0.3719,-0.3706,-0.3687,-0.3673,-0.3647,-0.3627,-0.3604,-0.359,-0.3577,-0.3574,-0.3573,-0.3578,-0.3586,-0.3582,-0.3576,-0.3574,-0.3574,-0.3574,-0.3574,-0.3574,-0.3853,-0.3844,-0.3822,-0.3804,-0.3789,-0.3772,-0.3761,-0.3744,-0.3728,-0.3705,-0.3693,-0.3674,-0.3652,-0.362,-0.3607,-0.3591,-0.3587,-0.3585,-0.3584,-0.3584,-0.3585,-0.3589,-0.3587,-0.3587,-0.3587,-0.3587,-0.3587,0,-0.3857,-0.3842,-0.3826,-0.3802,-0.3787,-0.3777,-0.3757,-0.3746,-0.3729,-0.3711,-0.3694,-0.3672,-0.3653,-0.3631,-0.361,-0.3602,-0.3595,-0.3597,-0.3597,-0.3594,-0.359,-0.3594,-0.3602,-0.3602,-0.3602,-0.3602,-0.3602,-0.3602,-0.3857,-0.384,-0.3829,-0.3804,-0.379,-0.3771,-0.3761,-0.3746,-0.3731,-0.3707,-0.3691,-0.3677,-0.3657,-0.3635,-0.3616,-0.361,-0.3604,-0.3607,-0.3599,-0.3596,-0.3594,-0.3593,-0.3596,-0.3606,-0.3606,-0.3605,-0.3605,-0.3605]},{"header":{"parameterUnit":"m.s-1","parameterCategory":1,"la1":30.2991,"la2":30.254,"lo1":-89.0895,"lo2":-89.0444,"dy":0.0017,"dx":0.0017,"nx":28,"ny":28,"refTime":"2024-07-18T21:00:00:Z","depth":0,"parameterNumber":3,"parameterNumberName":"V-component_of_WINDS"},"data":[0,0,0,0,0,0,0,0,0,0,0,0,0,0,0,0,0,0,0,0,0,0,0,0,0,0,0,0,0,0,0,0,0,0,0,0,0,0,0,0,0,0,0,0,0,0,0,0,0,0,0,0,0,0,0,0,0,0,4.1393,4.1393,0,4.1427,4.1428,4.1428,4.1365,4.1363,4.1361,4.1359,4.139,4.1393,4.1396,0,0,0,0,0,0,0,0,0,0,0,0,0,4.1268,4.1271,4.1393,4.1393,4.1394,4.1427,4.1428,4.1428,4.1366,4.1363,4.1361,4.1358,4.1389,4.1393,4.1396,0,0,0,0,0,0,0,0,0,0,0,0,0,4.1314,4.1272,4.1393,4.1367,4.1365,4.1427,4.1428,4.1428,4.1366,4.1363,4.136,4.1357,4.1388,4.1392,4.1397,4.1484,0,0,4.1409,4.1411,0,0,0,0,0,0,0,0,4.1312,4.1319,4.137,4.1369,4.1367,4.1389,4.1395,4.1447,4.1367,4.1366,4.1359,4.1356,4.1392,4.1396,4.1409,4.1486,4.1487,4.141,4.1412,4.1414,4.1415,0,0,0,0,0,0,0,4.1309,4.1317,4.1406,4.1371,4.1369,4.1352,4.1355,4.1405,4.1396,4.1366,4.1361,4.1366,4.1391,4.1405,4.1409,4.1488,4.1409,4.1413,4.1416,4.1417,4.1635,4.1639,0,0,0,0,0,0,4.1309,4.1315,4.1405,4.1407,4.1331,4.1357,4.136,4.1385,4.1395,4.1394,4.1369,4.1363,4.14,4.1404,4.141,4.1511,4.1414,4.1418,4.142,4.1632,4.1636,4.164,0,0,0,0,0,0,4.1307,4.1318,4.1404,4.136,4.137,4.1362,4.139,4.1387,4.1402,4.1398,4.1395,4.1386,4.1397,4.1404,4.1466,4.1512,4.142,4.1423,4.1628,4.1633,4.1638,4.1716,0,0,0,0,0,0,4.1304,4.1318,4.1352,4.1361,4.1372,4.1461,4.1393,4.139,4.141,4.1402,4.1413,4.1412,4.1395,4.146,4.147,4.1516,4.1427,4.1624,4.1631,4.1636,4.1709,4.1723,4.1735,0,0,0,0,0,4.13,4.1373,4.1354,4.1366,4.1416,4.1464,4.147,4.1451,4.1414,4.1447,4.1444,4.1411,4.1506,4.1467,4.1478,4.1525,4.1621,4.1629,4.1636,4.1704,4.172,4.1735,0,0,0,0,0,0,4.1368,4.1373,4.1353,4.1432,4.1448,4.1453,4.1495,4.147,4.1496,4.1488,4.1462,4.1465,4.1531,4.1535,4.1492,4.1609,4.1557,4.1567,4.1604,4.162,4.1633,4.163,4.143,0,0,0,0,0,4.1393,4.1433,4.1435,4.1504,4.1513,4.1503,4.1523,4.1507,4.1522,4.1529,4.153,4.1545,4.1577,4.16,4.163,4.171,4.171,4.1748,4.1761,4.1771,4.1779,4.182,4.1836,4.1664,4.1664,4.1664,0,0,4.1443,4.1451,4.1478,4.1518,4.1528,4.1568,4.1509,4.1555,4.1583,4.1535,4.1593,4.1595,4.161,4.1681,4.1712,4.1685,4.1827,4.1781,4.1789,4.1791,4.1829,4.1845,4.186,4.1669,4.1668,4.1668,0,0,4.1555,4.1566,4.1624,4.1636,4.1653,4.1645,4.1659,4.1669,4.1668,4.1727,4.169,4.1724,4.1781,4.1792,4.1806,4.1921,4.189,4.1932,4.1997,4.2037,4.205,4.2062,4.21,4.2115,4.194,4.194,4.1941,0,4.1615,4.1675,4.1656,4.1704,4.1721,4.1681,4.1737,4.1749,4.1775,4.1787,4.1758,4.1828,4.1835,4.1907,4.1935,4.1948,4.1961,4.1929,4.205,4.2062,4.2072,4.2109,4.2124,4.1945,4.1945,4.1944,4.1944,0,4.1747,4.1789,4.1833,4.186,4.1882,4.1935,4.1921,4.1946,4.1928,4.1924,4.1982,4.199,4.2019,4.2036,4.2019,4.2105,4.2087,4.2055,4.2001,4.2094,4.2127,4.2141,4.1952,4.195,4.1949,4.1948,0,0,4.1902,4.1917,4.1933,4.1943,4.1959,4.199,4.204,4.207,4.2091,4.211,4.2149,4.2198,4.2168,4.2183,4.2167,4.2202,4.2289,4.2164,4.2164,4.2185,4.2381,4.2404,4.2421,4.227,4.2273,4.2275,4.2379,0,4.201,4.2096,4.208,4.2163,4.22,4.2162,4.2204,4.2218,4.2215,4.2244,4.2241,4.2275,4.2234,4.2242,4.2276,4.2272,4.2328,4.2264,4.2304,4.2305,4.2299,4.2438,4.2463,4.2561,4.2393,4.2395,4.2396,0,4.2149,4.2173,4.226,4.2268,4.2283,4.2322,4.2347,4.2377,4.2391,4.2386,4.2403,4.2379,4.2426,4.2374,4.2437,4.2394,4.2409,4.241,4.2413,4.2413,4.2355,4.244,4.2592,4.2605,4.2417,4.2416,4.2414,0,4.2249,4.2305,4.2363,4.2373,4.2385,4.2413,4.2418,4.2429,4.2448,4.2469,4.2481,4.2508,4.2522,4.2543,4.2526,4.249,4.2591,4.2538,4.2586,4.2586,4.2607,4.2605,4.276,4.2622,4.2621,4.2621,4.2621,0,4.2371,4.2425,4.2408,4.2444,4.2502,4.2482,4.254,4.2541,4.2551,4.2585,4.2554,4.2586,4.2564,4.2594,4.2582,4.2634,4.2642,4.2637,4.2633,4.2638,4.2639,4.2646,4.2638,4.2625,4.2624,4.2623,4.2623,0,4.2493,4.2484,4.2544,4.255,4.2553,4.2596,4.26,4.2632,4.2627,4.267,4.2679,4.267,4.2703,4.269,4.2726,4.2717,4.2783,4.2771,4.2779,4.2775,4.2823,4.2817,4.2985,4.3005,4.2857,4.2858,4.2859,0,4.257,4.261,4.262,4.2641,4.2649,4.2684,4.2702,4.2684,4.2705,4.2722,4.2752,4.2783,4.2806,4.2861,4.2857,4.2883,4.287,4.2927,4.2873,4.2877,4.2867,4.2864,4.2867,4.2937,4.2939,4.294,4.2941,0,4.2706,4.2699,4.2728,4.2755,4.2779,4.2799,4.2816,4.2835,4.2817,4.2842,4.2876,4.2894,4.293,4.296,4.2983,4.2988,4.2961,4.2959,4.297,4.2975,4.2977,4.2974,4.2805,4.2954,4.2953,4.2952,4.2951,4.2951,4.2806,4.2839,4.2851,4.2884,4.2895,4.2912,4.2941,4.294,4.2968,4.2997,4.2984,4.3023,4.3034,4.3062,4.307,4.3099,4.3076,4.3095,4.3099,4.3103,4.3108,4.2975,4.3104,4.3103,4.3103,4.3103,4.3102,0,4.2938,4.2944,4.2974,4.3,4.3025,4.2999,4.3017,4.3039,4.3073,4.3086,4.311,4.3148,4.3177,4.3176,4.3202,4.3225,4.3213,4.3232,4.3229,4.323,4.3128,4.3114,4.3241,4.3241,4.3241,4.3241,4.3241,4.3241,4.301,4.3064,4.3059,4.3117,4.3123,4.3161,4.3173,4.3187,4.3197,4.3241,4.3265,4.3264,4.3271,4.3297,4.3322,4.332,4.333,4.3353,4.3347,4.3251,4.3237,4.3224,4.321,4.3357,4.3357,4.3447,4.3447,4.3448]}]]